sat.trackr.live / text

‹ back to catalog

STARLINK-2543

NORAD 48278 · 2021-036C

PAYLOAD ACTIVE UNKNOWN

§ Identity

Operator
Country
US
Launch date
2021-04-29
Launch site
AFETR
Launch vehicle
Mass (kg)
RCS (m²)

Purposes: comms

External: N2YO · Heavens-Above · Gunter

§ Orbital elements

Epoch: 2026-05-25T01:14:16.663200Z

Period
94.01 min
Inclination
53.1624°
Eccentricity
0.0001127
Mean motion
15.31702985 rev/d
Perigee alt
470.0 km
Apogee alt
471.5 km
Semi-major
6,848.9 km
B*
1.1635e-4
RAAN
29.2266°
Arg perigee
91.6234°
Mean anomaly
268.4896°
Rev number
28,081

§ Raw data

STARLINK-25431 48278U 21036C   26145.05158175  .00003247  00000+0  11635-3 0  99952 48278  53.1624  29.2266 0001127  91.6234 268.4896 15.31702985280818

JSON: /api/v1/satellites/48278 · /tle

For live sub-satellite position, see the globe view (requires WebGL).

§ Visibility from observer

Set your observer location to see the next 7 days of passes ≥ 10°. The values pass through the URL so the page stays shareable.

No JS? Fill the form by hand. The geolocation button needs JavaScript.